• Join FlightAware (Why Join?)
  • Login
  • US Flag GB Flag 
23:16 EST


 

Airport Tracker/Info


-or-


 

Live Flight TrackerFlight Track Log ✈ EJA831 ✈ 28-Apr-2013 ✈ KROC - KBED

Flight Track Log - Related Links

Times and Time Zones

All times are in EDT time to prevent confusion due to time zone crossing. See the EJA831 flight status page for this flight to view local times or setup timezone preferences in your user account.

Time Position Orientation Groundspeed Altitude Reporting Facility
EDT Latitude Longitude Course Direction KTS MPH feet Rate Location/Type
18:21 43.1225 -77.6961 278° West 181 208 1,800  Level Cleveland Center
18:21 43.1253 -77.7244 278° West 197 227 3,200 4,440 Climbing Cleveland Center
18:23 43.1861 -77.7386 350° North 282 325 8,100 3,120 Climbing Cleveland Center
18:24 43.1939 -77.6414 84° East 274 315 10,000 2,040 Climbing Cleveland Center
18:25 43.1439 -77.5556 129° Southeast 258 297 12,500 2,280 Climbing Cleveland Center
18:26 43.1200 -77.4486 107° East 270 311 14,600 1,200 Climbing Cleveland Center
18:27 43.1269 -77.3203 86° East 304 350 15,000 600 Climbing Cleveland Center
18:28 43.1314 -77.1864 87° East 326 375 15,900 1,500 Climbing Cleveland Center
18:31 43.0689 -76.8147 103° East 364 419 20,800 1,800 Climbing Boston Center
18:32 43.0147 -76.7003 123° Southeast 359 413 23,000 1,080 Climbing Boston Center
18:33 42.9514 -76.5539 121° Southeast 413 475 23,000  Level Boston Center
18:34 42.9319 -76.3967 100° East 426 490 23,000  Level Boston Center
18:35 42.9228 -76.2372 94° East 418 481 23,000  Level Boston Center
18:36 42.9133 -76.0806 95° East 418 481 23,000  Level Boston Center
18:37 42.9017 -75.9183 96° East 413 475 23,000  Level Boston Center
18:38 42.8917 -75.7617 95° East 413 475 23,000  Level Boston Center
18:39 42.8817 -75.6053 95° East 418 481 23,000  Level Boston Center
18:40 42.8714 -75.4489 95° East 418 481 23,000  Level Boston Center
18:41 42.8606 -75.2925 95° East 413 475 23,000  Level Boston Center
18:42 42.8497 -75.1419 96° East 408 470 23,000  Level Boston Center
18:43 42.8386 -74.9914 96° East 403 464 23,000  Level Boston Center
18:44 42.8275 -74.8381 96° East 403 464 23,000  Level Boston Center
18:45 42.8158 -74.6875 96° East 403 464 23,000  Level Boston Center
18:46 42.8042 -74.5342 96° East 409 471 23,000  Level Boston Center
18:47 42.7925 -74.3783 96° East 409 471 23,000  Level Boston Center
18:48 42.7825 -74.2253 95° East 409 471 23,000  Level Boston Center
18:49 42.7681 -74.0719 97° East 409 471 23,000  Level Boston Center
18:50 42.7806 -73.9167 84° East 409 471 23,000 -180 Level Boston Center
18:51 42.7992 -73.7644 80° East 403 464 22,700 -960 Descending Boston Center
18:52 42.7967 -73.6172 91° East 398 458 21,100 -1,200 Descending Boston Center
18:53 42.7731 -73.4697 102° East 393 452 20,300 -1,080 Descending Boston Center
18:54 42.7492 -73.3392 104° East 393 452 19,000 -660 Descending Boston Center
18:55 42.7231 -73.1806 103° East 393 452 19,000  Level Boston Center
18:56 42.7050 -73.0531 101° East 388 447 19,000 -60 Level Boston Center
18:57 42.6850 -72.9144 101° East 383 441 18,900 -900 Descending Boston Center
18:58 42.6625 -72.7789 103° East 372 428 17,200 -1,800 Descending Boston Center
18:59 42.6419 -72.6433 102° East 366 421 15,300 -1,140 Descending Boston Center
19:00 42.6214 -72.5133 102° East 361 415 15,000 -180 Descending Boston Center
19:01 42.5983 -72.3808 103° East 356 410 15,000 -300 Level Boston Center
19:02 42.5753 -72.2511 104° East 356 410 14,400 -1,200 Descending Boston Center
19:03 42.5519 -72.1131 103° East 351 404 12,600 -1,620 Descending Boston Center
19:04 42.5414 -72.0061 98° East 332 382 11,200 -1,500 Descending Boston Center
19:05 42.5283 -71.8850 98° East 304 350 9,600 -1,500 Descending Boston Center
19:06 42.5236 -71.7894 94° East 282 325 8,200 -1,500 Descending Boston Center
19:07 42.5250 -71.6711 89° East 282 325 6,600 -1,680 Descending Boston Center
19:07 42.5333 -71.6000 81° East 277 319 5,600 -1,800 Descending KA90
19:08 42.5500 -71.5000 77° East 276 318 3,800 -1,740 Descending KA90
19:09 42.5667 -71.4167 75° East 244 281 2,200 -900 Descending KA90
19:10 42.5667 -71.3333 90° East 201 231 2,100 -240 Descending KA90
19:11 42.5500 -71.2667 109° East 183 211 1,800 -420 Descending KA90
19:12 42.5167 -71.2500 160° South 154 177 1,400 -600 Descending KA90
19:13 42.5000 -71.2667 216° Southwest 107 123 700 6,900 Descending KA90
19:15 42.4447 -71.2894 197° South 112 129 19,000 7,200 Climbing Boston Center
19:16 42.4133 -71.3039 199° South 112 129 19,000  Level Boston Center
19:17 42.3761 -71.3217 199° South 112 129 19,000  Level Boston Center
19:18 42.3511 -71.3333 199° South 112 129 19,000  Level Boston Center
19:19 42.3511 -71.3333 294° West 112 129 19,000  Level Boston Center
19:21 42.4667 -71.2833 18° North  Level FlightAware Approximate
19:28 42.4699 -71.2890 18° North  Level Estimated
19:29 42.4667 -71.2833 18° North  Level FlightAware Approximate